Regional Weather Roundup
Issued by NWS

Home | Current Version | Previous Version | Graphics & Text | Print | Product List | Glossary On
Versions: 1 2 3 4 5 6 7 8 9 10 11 12 13 14 15 16 17 18 19 20 21 22 23 24 25 26 27 28 29 30 31 32 33 34 35 36 37 38 39 40 41 42 43 44 45 46 47 48 49 50
000
ASUS45 KABQ 220901
RWRNM
NEW MEXICO REGIONAL WEATHER ROUNDUP
NATIONAL WEATHER SERVICE ALBUQUERQUE NM
300 AM MDT SUN OCT 22 2017

NOTE: "FAIR" MEANS FEW OR NO CLOUDS BELOW 12,000 FEET AGL WITH NO
       SIGNIFICANT WEATHER OR OBSTRUCTIONS TO VISION.

      THIS PRODUCT IS RELEASED AS TWO VERSIONS.  ONE VERSION NEAR
      THE TOP OF THE HOUR CONTAINING PRELIMINARY DATA FROM ALBUQUERQUE
      AND OTHER STATIONS.  A FINAL VERSION WITH ADDITIONAL DATA IS
      ISSUED ABOUT 10 MINUTES AFTER THE HOUR.

NMZ501-503-504-510>518-221000-
NORTHWEST PLATEAU/NORTHCENTRAL MOUNTAINS

CITY           SKY/WX    TMP DP  RH WIND       PRES   REMARKS
FARMINGTON     FAIR      36   7  29 W8        30.34S WCI  30
LOS ALAMOS     FAIR      37   4  24 NE5       30.33S WCI  34
SANTA FE       FAIR      39   7  26 N10       30.30R WCI  32
TAOS           FAIR      24   9  52 NE8       30.37R WCI  15
ANGEL FIRE     FAIR      32   3  29 E8        30.33R WCI  25

$$
NMZ402-403-502-505>509-221000-
WESTCENTRAL MOUNTAINS/SOUTHWEST MOUNTAINS

CITY           SKY/WX    TMP DP  RH WIND       PRES   REMARKS
GALLUP         FAIR      22   6  50 E5        30.40R WCI  16
GRANTS         FAIR      32  12  44 W12       30.40F WCI  23
SILVER CITY    FAIR      44  14  29 N3        30.27R

$$
NMZ407-409-411-412-221000-
SOUTHERN DESERTS

CITY           SKY/WX    TMP DP  RH WIND       PRES   REMARKS
DEMING         FAIR      51  26  37 SE5       30.24R
LAS CRUCES     FAIR      60  16  18 N12G17    30.24R
ALAMOGORDO     FAIR      59  14  17 NE13      30.24R
T OR C         FAIR      51  14  22 NE7       30.29R

$$
NMZ519>523-221000-
CENTRAL VALLEYS/CENTRAL HIGHLANDS

CITY           SKY/WX    TMP DP  RH WIND       PRES   REMARKS
ALBUQUERQUE    FAIR      47   4  17 NW5       30.33R
MORIARTY ARPT  FAIR      37   9  31 N8        30.34R WCI  31
CLINES CORNERS NOT AVBL
BELEN          FAIR      40  10  28 NE3       30.33R
SOCORRO        FAIR      41  13  31 CALM      30.33R

$$
NMZ524>526-539-540-221000-
SOUTHCENTRAL MOUNTAINS

CITY           SKY/WX    TMP DP  RH WIND       PRES   REMARKS
RUIDOSO        FAIR      45   7  21 W7        30.35R

$$
NMZ527>531-221000-
NORTHEAST HIGHLANDS/NORTHEAST PLAINS

CITY           SKY/WX    TMP DP  RH WIND       PRES   REMARKS
LAS VEGAS      FAIR      32  23  69 S6        30.30R WCI  26
RATON          FAIR      29  23  78 N8        30.25R WCI  21
CLAYTON        FAIR      31  17  56 N5        30.25R WCI  26

$$
NMZ532>537-221000-
EASTCENTRAL PLAINS

CITY           SKY/WX    TMP DP  RH WIND       PRES   REMARKS
SANTA ROSA     FAIR      39  32  77 SW3       30.26S
TUCUMCARI      FAIR      38  33  82 W6        30.23R WCI  33
CANNON AFB     CLEAR     40  38  94 NW8       30.26R WCI  34
CLOVIS AIRPORT FAIR      37  32  82 NW6       30.25R WCI  32

$$
NMZ028-029-538-221000-
SOUTHEAST PLAINS

CITY           SKY/WX    TMP DP  RH WIND       PRES   REMARKS
ROSWELL        FAIR      47  27  45 N8        30.25R
ARTESIA        FAIR      48  27  43 N10       30.25R
CARLSBAD       FAIR      50  39  66 NE6       30.22R
HOBBS          FAIR      43  37  81 N7        30.23R


$$




USA.gov is the U.S. government's official web portal to all federal, state and local government web resources and services.